map of AGP home
AGP - Airport
Location
City:  Málaga, Andalusia, Spain
Name:Costa del Sol Airport
ICAO:LEMG
IATA:AGP

Details
Type:Airport (Aerodrome, Airfield)
Use:Public/Civil, International (customs port of entry)
Latitude:36°40'30"N (36.675000)
Longitude:4°29'57"W (-4.499166)
Elevation:52 ft (16 m)
Variation:0.63°W (WMM2015v2 magnetic declination)
0.15° annual change
Runways:1
Longest:10500 × 148 ft (3200 × 45 m), paved

Time
Time Zone:UTC+1 (DST+2)
Local Time:

Weather
METAR:LEMG 041400Z 15005KT 090V190 CAVOK 15/M01 Q1028 NOSIG
TAF:LEMG 041100Z 0412/0512 12009KT CAVOK TX15/0416Z TN05/0507Z
BECMG 0418/0420 VRB03KT
BECMG 0421/0423 29006KT

Related Locations
Nearby:
Farthest:CMV: 12443 mi / 20025 km
Coromandel, WKO, NZ

Find:

   beyond  
but within

Other Information
Maps:
NOTAMs:
Links:
Sources:

  
  • flag of Spain
  • flag of Andalusia
  

Airport Diagram

Airport diagram for AGP

Airport diagram PDF

Sectional Chart

Flight Planning
at skyvector.com

Satellite Image

Google Maps Satellite view

 

Copyright © 2004-2019 Karl L. Swartz. All rights reserved.
The Great Circle Mapper name and logo are trademarks of the Great Circle Mapper.
All other trademarks mentioned herein belong to their respective owners.
Please see credits for attibutions and further copyright information.

  Follow gcmap on Facebook Follow gcmap on Twitter GCmap on LinkedIn

hCard Microformat

Geo Microformat